Weather Roundup
Issued by NWS

Home | Current Version | Previous Version | Text Only | Print | Product List | Glossary On
Versions: 1 2 3 4 5 6 7 8 9 10 11 12 13 14 15 16 17 18 19 20 21 22 23 24 25 26 27 28 29 30 31 32 33 34 35 36 37 38 39 40 41 42 43 44 45 46 47 48 49 50
517
NZUS93 KARX 081959
HRRWXR

CURRENT HOURLY OBSERVATIONS ACROSS
MUCH OF THE UPPER MISSISSIPPI VALLEY
NATIONAL WEATHER SERVICE LA CROSSE WI
200 PM CST MON FEB 08 2016


...SOUTHEAST MINNESOTA...


CITY           SKY/WX    TMP DP  RH WIND       PRES   REMARKS
ROCHESTER      CLOUDY    13   5  70 NW24      29.84S WCI  -7
ROCHESTER/MAYO CLOUDY    14   5  68 NW20G30   29.85F WCI  -4
WINONA         CLOUDY    18   9  68 NW16G24   29.88S WCI   3
AUSTIN         LGT SNOW  12   9  85 NW20G26   29.87S WCI  -6
ALBERT LEA     LGT SNOW  14   9  79 NW14G25   29.90S WCI  -1
DODGE CENTER   CLOUDY    14   5  67 NW26      29.86S WCI  -6
PRESTON        CLOUDY    13   5  71 NW20G25   29.84S WCI  -5
OWATONNA       CLOUDY    14   7  73 NW20G26   29.91S WCI  -3
FARIBAULT      CLOUDY    16   7  67 NW17G23   29.92S WCI   0
$$

...ELSEWHERE IN MINNESOTA...


CITY           SKY/WX    TMP DP  RH WIND       PRES   REMARKS
MINNEAPOLIS    CLOUDY    16   6  65 NW20G28   29.93S WCI  -1
INTNL FALLS    LGT SNOW   6  -1  73 NW17G23   29.98R WCI -13
DULUTH         FLURRIES  10   1  67 NW20G28   29.83R WCI  -9
RED WING       CLOUDY    18   1  49 NW10G16   29.90S WCI   6
REDWOOD FALLS  LGT SNOW  16   9  74 NW18G36   30.03S WCI   0
MANKATO        CLOUDY   N/A N/A N/A NW26      29.95R
WORTHINGTON    CLOUDY   N/A N/A N/A NW31      30.03S VSB 1/2
FAIRMONT       CLOUDY    16   7  67 NW29G36   29.96R WCI  -4
$$

...SOUTHWEST WISCONSIN...


CITY           SKY/WX    TMP DP  RH WIND       PRES   REMARKS
LA CROSSE      CLOUDY    19   9  65 NW16      29.83F WCI   4
PRAIRIE DU CHI CLOUDY    22  10  59 NW16G24   29.81S WCI   8
BOSCOBEL       CLOUDY    23  11  60 NW9G20    29.80R WCI  13
LONE ROCK      CLOUDY    22  12  65 NW12G22   29.77R WCI  10
PLATTEVILLE    CLOUDY    21  15  76 NW15G22   29.75S WCI   8
FORT MC COY    CLOUDY    20  12  69 NW14G24   29.80S WCI   7
VIROQUA        CLOUDY    19  11  71 NW17      29.76R WCI   3
WIS DELLS      CLOUDY    21  13  72 NW16G22   29.72S WCI   7
$$

...ELSEWHERE IN WISCONSIN...


CITY           SKY/WX    TMP DP  RH WIND       PRES   REMARKS
MILWAUKEE      CLOUDY    26  20  77 W15       29.65R WCI  14
MADISON        CLOUDY    23  15  71 NW13G22   29.71R WCI  11
GREEN BAY      LGT SNOW  30  26  85 N9        29.65R FOG     WCI  22
EAU CLAIRE     NOT AVBL
BLACK RVR FLS  CLOUDY    20   8  60 NW12G18   29.80S WCI   8
MEDFORD        CLOUDY    19  12  76 NW15      29.71S WCI   4
WAUSAU         CLOUDY    25  15  66 NW16G23   29.68S WCI  12
WIS RAPIDS     CLOUDY    21  12  68 NW17G24   29.74R WCI   7
MARSHFIELD     CLOUDY    19  10  68 NW18      29.71S WCI   4
RICE LAKE      FLURRIES  14   5  68 NW8G16    29.86S WCI   3
$$

...NORTHEAST IOWA...


CITY           SKY/WX    TMP DP  RH WIND       PRES   REMARKS
WATERLOO       CLOUDY    15   8  73 NW25G32   29.88S WCI  -4
DUBUQUE        CLOUDY    20  12  71 NW17      29.76S WCI   5
DECORAH        PTSUNNY   16   7  67 N22G30    29.81S WCI  -2
MASON CITY     LGT SNOW  15   8  73 NW28      29.92S WCI  -5
CHARLES CITY   CLOUDY    14   9  79 NW25G32   29.87F WCI  -5
OELWEIN        NOT AVBL
$$

...ELSEWHERE IN IOWA...


CITY           SKY/WX    TMP DP  RH WIND       PRES   REMARKS
DES MOINES     LGT SNOW  20   8  60 N28G37    29.97F BLWGSNOWWCI   2
IOWA CITY      FLURRIES  19  10  68 NW20G31   29.88S WCI   3
FORT DODGE     CLOUDY    16   7  67 NW14G26   29.99S WCI   1
MARSHALLTOWN   FLURRIES  16   9  74 NW23      29.92S WCI  -2
CEDAR RAPIDS   LGT SNOW  17  12  80 NW23      29.85R WCI  -1
$$

...NORTHERN ILLINOIS...


CITY           SKY/WX    TMP DP  RH WIND       PRES   REMARKS
CHICAGO-OHARE  FLURRIES  27  22  81 W15       29.66S WCI  15
CHICAGO-MIDWAY CLOUDY    29  21  72 NW13      29.68R WCI  19
MOLINE         LGT SNOW  21  13  71 NW22G28   29.81R WCI   5
ROCKFORD       CLOUDY    26  18  71 NW16      29.73R WCI  14
PEORIA         LGT SNOW  21  13  71 NW14G23   29.80R WCI   8
$$

NOTE: "FAIR" INDICATES FEW OR NO CLOUDS BELOW 12,000 FEET WITH NO
SIGNIFICANT WEATHER AND/OR OBSTRUCTIONS TO VISIBILITY. WIND
SPEEDS ARE IN MILES-PER-HOUR.




USA.gov is the U.S. government's official web portal to all federal, state and local government web resources and services.